486  
ASUS46 KPDT 250525  
RWRPDT  
PENDLETON REGIONAL WEATHER ROUNDUP  
NATIONAL WEATHER SERVICE PENDLETON OREGON  
1000 PM PDT FRI OCT 24 2014  
 
NOTE: FAIR INDICATES FEW OR NO CLOUDS BELOW 12,000 FEET WITH NO  
SIGNIFICANT WEATHER AND/OR S TO VISIBILITY
.  
 
# INDICATES UNOFFICIAL STATION AND DATA  
 
WAZ520-250610-  
EAST SLOPES OF WASHINGTON CASCADES  
 
CITY SKY/WX TMP DP RH WIND PRES REMARKS
 
#BULLFROG 2SW N/A 64 43 46 CALM 29.67F  
#BUMPING DAM N/A 39 N/A N/A NW7 N/A  
#CLE ELUM HS N/A 45 43 93 CALM 29.91F  
#CLE ELUM 2NW N/A 43 43 100 CALM N/A  
#CLE ELUM LAKE N/A 41 40 96 CALM 29.94F  
#CLIFFDEL 2NW N/A 41 41 100 CALM N/A  
#GLENWOOD N/A 46 45 96 NE1 29.88F  
#MANASTASH CYN N/A 42 39 89 CALM 29.91F  
#NELSON N/A 44 43 96 CALM 29.98F  
#NELSON 3SW N/A 39 38 96 CALM 30.17F  
#NILE N/A 43 42 96 CALM 29.22F  
#RONALD 2NW N/A 43 41 93 CALM 29.81F  
#SNOWDEN N/A 45 41 86 CALM N/A  
#TEANAWAY 4NE N/A 44 44 100 CALM N/A  
#TROUT LAKE 1NE N/A 46 45 96 CALM 29.87F  

 
 
WAZ521-250610-  
SIMCOE HIGHLANDS  
 
CITY SKY/WX TMP DP RH WIND PRES REMARKS
 
#BICKLETON HS N/A 44 43 96 N7 29.97F  
#CENTERVILLE 4W N/A 49 45 86 E1 29.63F  
#CENTERVILLE 1SWN/A 47 44 89 CALM 29.84F  
#GOLDENDALE N/A 49 46 89 E5 N/A  
#GOLDENDALE 1NE N/A 50 44 80 NE3 N/A  
#GOLDENDALE 1S N/A 48 46 93 CALM 29.85F  
#GOLDENDALE 5WNWN/A 47 44 89 W3 29.86F  
#GOODNOE HILLS N/A 49 46 89 SE2 29.80F  
#LYLE 6NE N/A 47 46 96 CALM 29.86F  

 
 
WAZ026-250610-  
KITTITAS VALLEY  
 
CITY SKY/WX TMP DP RH WIND PRES REMARKS
 
ELLENSBURG AP CLOUDY 47 44 89 W5 29.94F  
#ELLENSBURG CWU N/A 45 44 96 W1 29.91F  
#ELLENSBURG 3NE N/A 44 43 96 W1 29.94F  
#ELLENSBURG N/A 48 48 100 CALM N/A  
#KITTITAS 3S N/A 45 44 96 CALM 29.94F  
#THORP 6N N/A 42 41 96 W2 29.97F  

 
 
WAZ027-250610-  
YAKIMA VALLEY  
 
CITY SKY/WX TMP DP RH WIND PRES REMARKS
 
SUNNYSIDE AP CLOUDY 46 46 100 W7 29.91F  
YAKIMA AIRPORT CLOUDY 48 45 89 W8 29.94F  
YAKIMA-VAGABOND CLOUDY 47 45 93 SE1 29.94F  
#COWICHE 1N N/A 45 42 89 NW1 30.07F  
#DONALD 2NE N/A 48 46 93 CALM 30.24F  
#GRANDVIEW N/A 48 46 93 CALM 29.93F  
#MABTON N/A 49 47 93 CALM 29.92F  
#MOXEE 2E N/A 47 46 96 SW1 29.90F  
#NACHES 2SW N/A 46 44 93 CALM 29.96S  
#OUTLOOK DOT N/A N/A N/A N/A W7 N/A  
#SELAH 8E N/A 45 43 93 NE1 N/A  
#TERRACE HTS N/A 47 45 93 CALM 29.90F  
#TOPPENISH N/A 48 46 93 W1 29.86S  
#WAPATO 4NE N/A 48 46 93 CALM 30.24F  
#WEST VALLEY N/A 47 44 89 N1 29.93F  
#W YAKIMA N/A 47 44 89 NW2 29.93F  
#WHITE SWAN 5E N/A 48 47 96 SW2 29.95F  
#WILEY CITY 3W N/A 44 31 60 CALM 29.96S  

 
 
WAZ028-250610-  
LOWER COLUMBIA BASIN...WASHINGTON  
 
CITY SKY/WX TMP DP RH WIND PRES REMARKS
 
PASCO CLOUDY 49 48 96 NW13 29.90F WCI 44  
PROSSER AWOS N/A 48 48 100 SW7 29.94F  
RICHLAND AWOS CLOUDY 50 46 86 NW10 29.91F  
#BASIN CITY 5SW N/A 49 47 93 W6 29.91F  
#BENTON CITY N/A 48 46 93 W7 29.82F  
#CONNELL 5N N/A 52 49 89 N5 29.89F  
#CONNELL 5NW N/A 49 47 93 N2 29.86F  
#ELTOPIA N/A 50 48 93 NW2 29.85F  
#ELTOPIA 6NW N/A 48 47 96 NW7 28.87F  
#KENNEWICK N/A 64 43 46 CALM 29.67F  
#KENNEWICK 3S N/A 48 46 93 CALM 29.90F  
#PASCO-BROADMOORN/A 50 49 96 NW3 29.81F  
#PATERSON N/A 50 46 86 CALM 29.86F  
#PROSSER N/A 48 46 93 W6 29.92F  
#SAGEMOOR 2W N/A 49 47 93 W7 29.74F  
#TOUCHET 2S N/A 49 47 93 W2 29.87F  
#WEST PASCO N/A 50 46 86 W6 29.90F  

 
 
WAZ029-250610-  
FOOTHILLS OF THE BLUES...WASHINGTON  
 
CITY SKY/WX TMP DP RH WIND PRES REMARKS
 
WALLA WALLA AP FOG 50 49 96 S8 29.87F VSB<1/4  
#LOWDEN 2SE N/A 50 49 96 W3 29.84F  
#PLEASANT VIEW 1N/A 50 48 93 N7 29.93F  
#PRESCOTT N/A 53 50 89 CALM 29.84F  
#WHITMAN COLLEGEN/A 50 49 96 CALM 29.91F  
#WAITSBURG 8N N/A 51 44 77 N7 29.82F  
#WALLA WALLA 5E N/A 49 48 96 CALM N/A  
#WALLA WALLA U N/A 51 50 96 CALM 29.86F  
#WHITMAN MISSIONN/A 50 49 96 W2 29.89F  

 
 
WAZ030-250610-  
BLUE MOUNTAINS...WASHINGTON  
 
CITY SKY/WX TMP DP RH WIND PRES REMARKS
 

 
 
ORZ009-041-WAZ024-250610-  
COLUMBIA RIVER GORGE  
 
CITY SKY/WX TMP DP RH WIND PRES REMARKS
 
HOOD RIVER AP CLOUDY 50 50 100 CALM 29.89F  
THE DALLES AP CLOUDY 52 50 93 CALM 29.88F  
#ARLINGTON AIRPON/A 48 46 93 E5 29.99S  
#ARLINGTON HS N/A 48 45 89 CALM 29.80F  
#CELILO DOT N/A 53 48 83 S2 N/A  
#LYLE N/A 52 50 93 CALM 29.90F  
#MARYHILL 2W N/A 52 52 100 CALM N/A  
#MOSIER 1S N/A 49 48 96 CALM N/A  
#MURDOCK N/A 54 52 93 NW1 29.89F  
#RUFUS DOT N/A 52 47 83 N2 N/A  
 

 
 
ORZ510-250610-  
NORTH CENTRAL OREGON  
 
CITY SKY/WX TMP DP RH WIND PRES REMARKS
 
#CHENOWITH 1W N/A 46 46 100 S3 N/A  
#COW CYN RST AREN/A 46 N/A N/A N5 N/A  
#DUFUR 9E N/A 46 44 93 E15 29.91F WCI 40  
#GRASS VALLEY N/A 44 44 100 N2 N/A  
#KENT DOT N/A 45 42 89 NE8 N/A  
#MAUPIN SCHOOL N/A 51 48 89 N1 28.75F  
#MORO SCHOOL N/A 47 47 100 E3 29.89F  
#SHANIKO 5WSW N/A 44 41 89 N8 N/A  
#SHANIKO 4NW N/A 44 44 100 NE9 29.84F  
#TYGH VALLEY 2NEN/A 51 47 86 NE5 29.86F  
#WAPANITIA AIRPON/A 47 46 96 N2 29.88F  
#WASCO DOT N/A 48 46 93 CALM N/A  
#WASCO 5NE N/A 47 45 93 CALM 29.89F  

 
 
ORZ511-250610-  
CENTRAL OREGON  
 
CITY SKY/WX TMP DP RH WIND PRES REMARKS
 
BEND AIRPORT FOG 45 45 100 CALM 29.86F VSB 1/2  
MADRAS AIRPORT CLOUDY 46 46 100 NW3 29.87F  
PRINEVILLE AP FOG 46 46 100 SW3 29.86S VSB 1/4  
REDMOND AIRPORT FOG 45 44 96 NW5 29.85F VSB 1/2  
#BEND 6E N/A 45 42 89 CALM 29.80F  
#BEND 1SW N/A 44 44 100 N1 N/A  
#BEND-KIM LN N/A 46 45 96 CALM 29.83S  
#CULVER N/A 46 44 93 NW1 29.82S  
#LAKE BILLY CHINN/A 47 44 89 CALM 29.92F  
#POWELL BUTTE 3EN/A 45 45 100 W3 N/A  
#POWELL BUTTE N/A 45 42 89 NW1 29.49F  
#PRINEVILLE 3N N/A 44 43 96 CALM 29.80S  
#WARM SPRINGS N/A 50 47 89 SW1 29.83F  
 
 
ORZ509-250610-  
EAST SLOPES OF OREGON CASCADES  
 
CITY SKY/WX TMP DP RH WIND PRES REMARKS
 
#CAMP SHERMAN N/A 46 44 93 CALM 29.83F  
#LA PINE DOT N/A 43 42 96 CALM N/A  
#LA PINE 4NW N/A 43 40 89 CALM 29.84F  
#LAVA BUTTE DOT N/A 43 42 96 CALM N/A  
#SISTERS AIRPOR N/A 45 45 100 CALM 29.91S  
#SISTERS ODOT N/A 45 N/A N/A CALM N/A  
#SISTERS 1NW N/A 46 44 93 E7 N/A  
#SISTERS 3N N/A 46 45 96 CALM 29.86F  
#SUNRIVER N/A 44 44 100 CALM 29.71F  
#SUNRIVER AP N/A 44 43 96 NE2 29.78F  
#SUTTLE LK DOT N/A 39 39 100 E20 N/A WCI 29  
#TUMALO 3W N/A 44 43 96 CALM 29.74S  
#WANOGA BUTTE D N/A 42 39 89 W3 N/A  
 

 
 
ORZ044-250610-  
LOWER COLUMBIA BASIN...OREGON  
 
CITY SKY/WX TMP DP RH WIND PRES REMARKS
 
HERMISTON CLOUDY 50 46 86 N5 29.87F  
#BOARDMAN SCHOOLN/A 54 48 80 CALM 29.89F  
#BOARDMAN 3W N/A 51 48 89 NE7 29.59F  
#BOARDMAN 8SW N/A 49 46 89 N3 29.87F  
#ECHO 8SW N/A 48 42 80 CALM 29.85F  
#IONE SCHOOL N/A 48 39 71 CALM 29.88S  
#IRRIGON 4NW N/A 53 47 80 N5 N/A  
#UMATILLA SCHOOLN/A 50 50 100 CALM 29.91F  
#UMATILLA N/A 52 44 74 S1 29.85F  

 
 
ORZ507-250610-  
NORTHERN FOOTHILLS OF THE BLUES  
 
CITY SKY/WX TMP DP RH WIND PRES REMARKS
 
PENDLETON AIRPT CLOUDY 45 44 96 NW5 29.85F FOG  
#ADAMS 3WNW N/A 47 44 89 E2 29.85F  
#ATHENA N/A 47 46 96 NE6 29.88F  
#CAYUSE N/A 48 46 93 CALM 29.84F  
#HELIX SCHOOL N/A 48 47 96 N9 29.85F  
#HELIX 3N N/A 47 46 96 N7 29.84F  
#HOLDMAN 5SE N/A 49 47 93 CALM 29.86F  
#HOLDMAN 6E N/A 47 46 96 S7 29.67F  
#M-F FERNDALE N/A 50 47 89 CALM 29.88F  
#M-FREEWATER 5SEN/A 49 47 93 CALM 29.87F  
#PENDLETON DNTN N/A 49 46 89 CALM 28.67S  
#PDT AQUATIC CTRN/A 50 45 83 N5 29.85S  
#PDT SUNRIDGE N/A 46 44 93 CALM 29.87F  
#PENDLETON 7NW N/A 48 43 83 CALM 26.85F  
#PILOT ROCK N/A 48 44 86 CALM 29.88F  
#TUTUILLA N/A 45 43 93 S2 29.85F  
#UMAPINE 2E N/A 50 48 93 W1 29.85S  
#WESTON SCHOOL N/A 48 46 93 E2 29.82F  
 

 
 
ORZ508-250610-  
SOUTHERN FOOTHILLS OF THE BLUES  
 
CITY SKY/WX TMP DP RH WIND PRES REMARKS
 
LEXINGTON FOG 46 46 100 N3 29.88F VSB 1/2  
#AJAX N/A 45 40 82 NE13 29.81F WCI 39  
#CONDON SCHOOL N/A 45 44 96 CALM 29.82F  
#CONDON 5W N/A 43 42 96 N6 29.82F  
#HEPPNER EOC N/A 46 44 93 CALM 29.81F  
#HEPPNER 4NE N/A 45 44 96 E1 29.84F  
#LEXINGTON 2SE N/A 49 46 89 N5 29.83S  
#MIKKALO N/A 47 44 89 NE2 29.87F  
#OLEX 4N N/A 47 45 93 NE3 29.88F  
#RUGGS 5NE N/A 46 45 96 W1 30.01F  
#RUGGS 2SW N/A 46 45 96 N2 29.87F  
 

 
 
ORZ502-503-250610-  
BLUE MOUNTAINS  
 
CITY SKY/WX TMP DP RH WIND PRES REMARKS
 
MEACHAM CLOUDY 48 44 86 CALM 29.89F  
#BATTLE MTN DOT N/A 44 45 100 S8 N/A  
#HARDMAN 10S N/A 44 42 93 SE3 29.93F  
#HEPPNER 15SE N/A 49 44 83 S3 29.75F  
#LADD CYN SMT N/A 46 42 86 E6 N/A  
#LADD CREEK ODOTN/A 45 44 96 SW3 N/A  
#N POWDER DOT N/A 41 41 100 CALM N/A  
#PIKES PEAK N/A 55 41 59 S15 27.99S  
#TOLLGATE N/A 43 41 93 NE1 29.87F  
#TROY SCHOOL N/A 49 47 93 CALM 29.80F  
#UKIAH N/A 39 38 96 CALM 29.91F  
#WESTON 4E N/A 52 44 74 SE9 29.79F  

 
 
ORZ505-250610-  
JOHN DAY BASIN  
 
CITY SKY/WX TMP DP RH WIND PRES REMARKS
 
JOHN DAY CLOUDY 49 44 83 CALM 29.88F  
#JOHN DAY KJDY N/A 48 43 83 CALM 30.05R  
#DAYVILLE SCHOOLN/A 49 45 86 CALM 29.84S  
#MT. VERNON 5SE N/A 52 45 77 E2 29.84F  
#WINLOCK N/A 46 44 93 CALM 29.94F  

 
 
ORZ506-250610-  
OCHOCO AND JOHN DAY HIGHLANDS  
 
CITY SKY/WX TMP DP RH WIND PRES REMARKS
 
#BUCK CREEK DOT N/A 50 50 100 SE10 N/A  
#HORSE RIDGE DO N/A 44 44 100 NW6 N/A  
#KEYES SMT DOT N/A 45 44 96 E8 N/A  
#PAULINA SCHOOL N/A 45 42 89 CALM 29.87S  
#PINE MTN OBS N/A 48 34 58 SE26G39 N/A WCI 40  
#PRAIRIE CITY N/A 42 39 89 CALM 29.95S  
#SENECA N/A 41 N/A N/A CALM N/A  
#SENECA 9NW N/A 40 39 96 CALM 29.89F  

 
 
ORZ049-250610-  
GRANDE RONDE VALLEY  
 
CITY SKY/WX TMP DP RH WIND PRES REMARKS
 
LA GRANDE CLOUDY 46 37 71 W5 29.93F  
#COVE N/A 45 44 96 CALM 29.85F  
#COVE SCHOOL N/A 45 42 89 CALM 29.91F  
#COVE 6NW N/A 43 41 93 CALM 29.97F  
#ELGIN 3N N/A 47 46 96 CALM 29.67F  
#ELGIN 1E N/A 46 42 86 CALM N/A  
#IMBLER SCHOOL N/A 63 35 35 SW3 29.84S  
#ISLAND CITY 4N N/A 50 49 96 CALM 29.72F  
#LADD CYN DOT N/A 45 44 96 CALM N/A  
#UNION 1S N/A 45 43 93 CALM 29.82F  

 
 
ORZ050-250610-  
WALLOWA COUNTY  
 
CITY SKY/WX TMP DP RH WIND PRES REMARKS
 
JOSEPH AIRPORT CLOUDY 43 43 100 CALM 29.95F  
#ENTERPRISE HS N/A 45 43 93 CALM 29.98S  
#IMNAHA 10S N/A 42 40 93 CALM 29.95F  
#JOSEPH 3N N/A 43 42 96 CALM 29.96F  
#JOSEPH 3W N/A 41 41 100 CALM 29.80F  
#LOSTINE N/A 44 42 93 CALM 29.75F  
#MT HOWARD 8000 N/A 45 32 60 S12G30 30.01F WCI 39  
#PROMISE 1S N/A 44 43 96 CALM 30.07F  
#SHEEP RDG 7000 N/A 49 33 54 CALM 29.98F  
#WALLOWA SCHOOL N/A 44 43 96 CALM 30.89F  
 

 
 
CLICK HERE TO GO TO PREVIOUS BULLETINS.

The Nexlab OR Page
The Nexlab WA Page Main Text Page